Погода Агинское

Погода Агинское : погода сейчас, прогноз погоды и архив. Всё, что Вы хотите узнать о погоде Агинское!

Хотите узнать прогноз погоды Агинское? Тогда Вам сюда: Погода Агинское

Поиск расширенной информации на нашем сайте:

Другие новости

Новости СМИ2

Главная страница сайта

Новости сайта

03.07.2017

Напоминаем, что на нашем специализированном сайте Метеоцентр.Азия вы можете получить высокодетализированные автоматические прогнозы погоды по пунктам России, СНГ и мира в авиационном формате (включающие направление и скорость ветра, видимость, явления погоды, количество и форму облачности, нижнюю и верхнюю границу облачности).


Погода Агинское - сегодня

Время (UTC), дата Ветер
(°,м/с) 
Видим.   Явления Облачность Т
(°С)
Тd
(°С)
f(%) Тe
(°С)
Pmin
(гПа)
dP
(гПа)
Po
(мм)
O2
(г/м3)
Тmin Tmax R s Состояние
почвы
00 14.08.18 240 (ЮЗ) 20000 м    5/0 верхняя 
[Ci fib]
+16.8 +13.6 81 +26  1011.8  0.9  701  263  +10.5        сухая 
03 14.08.18 090 (В) 20000 м    3/0 верхняя 
[Ci fib]
+25.4 +15.4 54 +37  1010  0.5  701  255           
06 14.08.18 070 (В) 20000 м    3/1 1000 м верхняя 
[Cu med, cong|Ci fib]
+27.9 +12.6 39 +34  1008.8  -0.6  701  254           
09 14.08.18 080 (В) 20000 м    3/1 1000 м верхняя 
[Cu med, cong|Ci fib]
+28.1 +11 35 +32  1009  0.2  701  254           
15 14.08.18 280 (З) 20000 м    ясно 
+15.4 +13.7 90 +25  1015  1.6  703  265           
18 14.08.18 260 (З) 20000 м    ясно 
+12.5 +11.4 93 +18  1017  704  269           
21 14.08.18 тихо ()   20000 м  местами туман поземный  10/0 верхняя 
[Ci fib]
+11 +10.4 96 +14  1018.3  0.7  704  271           
00 15.08.18 150 (ЮВ) 20000 м    10/0 верхняя 
[Cs]
+17.4 +13.7 79 +27  1017.4  0.9  705  264  +10.7        сухая 
03 15.08.18 160 (Ю) 20000 м    10/1 1000 м верхняя 
[Cu hum|Cs]
+24 +17.7 68 +40  1014.9  -0.5  705  257           
06 15.08.18 190 (Ю) 20000 м    10/3 1000 м верхняя 
[Cu hum|Cs]
+25.5 +17.1 60 +40  1014.1  -0.4  704  256           
09 15.08.18 190 (Ю) 20000 м    10/1 1000 м средняя, верхняя 
[Cu hum|Ac lent|Ci]
+25.6 +17.1 59 +40  1012.8  -1.2  703  255           
15 15.08.18 250 (З) 20000 м    ясно 
+19.8 +17.2 85 +36  1013.8  -0.3  703  260           
18 15.08.18 050 (СВ) 20000 м    3/0 средняя 
[Ac trans]
+18.2 +16.4 89 +33  1013.2  -0.9  702  262           
21 15.08.18 280 (З) 20000 м    9/9 600 м кучево-дожд. 
[Cb cap]
+16.9 +15.7 93 +30  1012.3  -1.2  701  263           
00 16.08.18 250 (З) 20000 м  в посл. час ливневой дождь  10/3 600 м кучево-дожд., средняя, верхняя 
[Cb cap|Ac cuf|Ci ing]
+17.5 +14.7 84 +29  1011.3  -0.8  701  262  +16.4    0.6    влажная 
03 16.08.18 310 (СЗ) 20000 м  в посл. час ливневой дождь  10/10 600 м кучево-дожд. 
[Cb cap]
+17 +14.9 87 +28  1010.3  -1.1  700  262           
06 16.08.18 280 (З) 20000 м  слаб. ливневой дождь  10/10 600 м кучево-дожд. 
[Cb cap]
+16.7 +14.9 89 +28  1008.5  -1.7  699  262           
09 16.08.18 320 (СЗ) 20000 м  в посл. час ливневой дождь  10/6 600 м кучево-дожд., средняя 
[Cb cap|Ac As]
+16.9 +14 83 +27  1008.5  -0.1  699  262           
12 16.08.18 290 (З) 20000 м  {ливн. осадки}  8/4 1000 м средняя 
[Sc diur, vesp|Ac cuf]
+16.1 +13.6 85 +25  1009.7  0.9  700  263    +18.1     
15 16.08.18 300 (СЗ) 20000 м    ясно 
+13.3 +12.1 92 +21  1010.8  0.2  700  266           
18 16.08.18 270 (З) 20000 м    ясно 
+13.2 +10.3 83 +17  1010.9  0.1  700  267           
21 16.08.18 250 (З) 20000 м    ясно 
+11.4 +8.5 82 +12  1011.4  0.1  700  269           
06 17.08.18 270 (З) 6{12}  20000 м    5/3 1000 м средняя 
[Cu med, cong|Ac trans]
+19.8 +8.1 47 +20  1007  -1.1  698  261           
09 17.08.18 280 (З) 6{11}  20000 м    3/1 1000 м средняя 
[Sc diur, vesp|Ac trans]
+21 +5.7 37 +21  1005.6  -1  697  260           
12 17.08.18 250 (З) 3{11}  20000 м    10/0 верхняя 
[Ci fib]
+14.7 +9.5 71 +17  1007.2  697  265    +21.3       
Время (UTC), дата Ветер
(°,м/с) 
Видим.   Явления Облачность Т
(°С)
Тd
(°С)
f(%) Тe
(°С)
Pmin
(гПа)
dP
(гПа)
Po
(мм)
O2
(г/м3)
Тmin Tmax R s Состояние
почвы

Для получения пояснительной информации подведите курсор к названию столбца.

ПОГОДА Агинское - архив

Всё, что Вы хотите узнать о погоде Агинское - удобно и подробно!

Выберите нужную дату (начиная с 1 января 2015* года) и нажмите кнопку "Найти".
Будут отображены архивные сводки погоды по пункту Агинское, начиная с указанной даты.


Отображать данные в формате CSV (для использования в таблицах Excel)


Внимание! Наш архив погоды предназначен исключительно для личного некоммерческого использования в познавательных целях. Если Вам необходимы официальные справки о состоянии погоды (для производственных, юридических, коммерческих и т.п. целей), обращайтесь в органы Росгидромета.

*Примечание: данная дата относится к архиву по метеостанциям СССР (Россия, СНГ, Балтия).
Архив по метеостанциям Зарубежной Европы и Азии (кроме Китая) хранится 10 дней, по другим регионам земного шара (Китай, Африка, Америка, Австралия, Океания) - 1 день.

Агинское - район местоположения метеостанции


Название, широта, долгота, высота метеостанции:
Агинское 51.1°ш. 114.5°д. 681 м над ур. моря [Российская Федерация]

Дополнительная информация

В oтличие oт бoльшинства пoгoдных сайтoв мы публикуем пoдрoбную метеoинфoрмацию в детальнoм прoфессиoнальнoм фoрмате.

Характеристики температуры и влажнoсти вoздуха измеряются на высoте 2 м в тени вдали oт зданий и деревьев.
Скoрoсть ветра измеряется на высoте 10 м (на урoвне рoста челoвека скoрoсть ветра ниже в 1.5-2 раза). Если метеoстанция нахoдится в гoрoде или в лесу, тo скoрoсть ветра занижена на 2-4 м/с пo сравнению с oткрытым местoм. Скoрoсть ветра над акватoриями крупных рек и oзёр, а также на вершинах хoлмoв на 2-5 м/с выше, чем в oбычных услoвиях.
Атмoсфернoе давление в разных тoчках местнoсти мoжет значительнo oтличаться oт давления на метеoстанции, в зависимoсти oт услoвий рельефа (при пoдъёме на 10 м давление пoнижается примернo на 1 мм рт.ст.).